Location: Artannes
(47.2040°N, 0.0914°W)
Time: 06:01:19
(UTC+00:00)

Daily predictions for brighter satellites

Satellite Brightness Start Highest point End
(mag) Time Altitude Azimuth Time Altitude Azimuth Time Altitude Azimuth
DNEPR-1 R/B 4.4 20:34:45 10° NNW 20:38:46 40° NE 20:42:55 10° ESE
FALCON 9 DEB 3.5 20:37:38 10° SSW 20:40:27 33° SE 20:43:17 10° ENE
CENTAUR R/B 3.7 20:36:10 10° WSW 20:42:06 51° NW 20:49:14 10° NE
Cosmos 1726 3.6 20:38:58 10° NNW 20:42:19 35° W 20:45:38 10° SSW
KORONAS-FOTON 3.9 20:39:28 10° S 20:43:10 55° E 20:46:53 10° NNE
CARTOSAT-1 4.3 20:40:50 10° SE 20:44:49 39° ENE 20:48:52 10° N
Terra 3.3 20:42:08 10° ESE 20:45:54 24° ENE 20:49:41 10° N
Cosmos 2360 Rocket 2.2 20:40:52 10° SSW 20:46:28 69° ESE 20:52:06 10° NNE
SPOT 1/Viking Rocket 3.6 20:41:41 10° SSE 20:46:47 69° ENE 20:51:54 10° N
Cosmos 1674 2.7 20:43:33 10° S 20:47:12 62° E 20:50:53 10° NNE
OBJECT-B 3.7 20:45:36 10° WSW 20:47:16 13° W 20:48:58 10° WNW
FALCON 9 DEB 3.6 20:45:39 10° SSW 20:48:25 30° SE 20:51:13 10° ENE
CZ-2C R/B 4.0 20:43:43 10° NNE 20:48:26 56° E 20:53:07 10° S
Cosmos 2322 Rocket 2.6 20:44:56 10° SW 20:50:37 70° WNW 20:56:20 10° NNE
SL-16 R/B 3.1 20:45:09 10° SW 20:50:43 56° WNW 20:56:19 10° NNE
FALCON 9 DEB 3.3 20:48:04 10° SSW 20:50:58 38° SE 20:53:54 10° ENE
Cosmos 1953 2.4 20:47:19 10° N 20:51:24 74° E 20:55:27 10° SSE
SPOT 5 3.7 20:48:36 10° SE 20:53:15 38° ENE 20:57:41 10° N
USA 245 4.3 20:48:54 10° SSE 20:53:58 72° ENE 20:59:56 10° N
Cosmos 1975 Rocket 3.0 20:50:03 10° S 20:54:25 84° E 20:58:51 10° N
Cosmos 1802 Rocket 4.3 20:49:09 10° N 20:55:21 58° ENE 21:01:37 10° SSE
Cosmos 1459 Rocket 4.0 20:50:47 10° N 20:56:51 72° E 21:02:54 10° SSE
Cosmos 1300 3.8 20:59:57 10° N 21:03:21 29° ENE 21:06:19 12° SE
Lacrosse 5 4.0 21:01:20 10° W 21:04:27 17° WSW 21:07:35 10° SSW
Resurs 01 Rocket 2.6 21:01:39 10° S 21:05:51 43° W 21:10:05 10° NNW
Meteor 1-16 Rocket 4.2 21:01:04 10° NNW 21:06:32 78° W 21:11:51 10° S
Cosmos 1000 Rocket 4.5 21:04:08 10° S 21:10:15 80° E 21:16:25 10° N
Cosmos 1340 3.1 21:07:31 10° SSE 21:11:06 43° E 21:14:41 10° NNE
Cosmos 2322 3.8 21:08:41 10° S 21:14:10 54° ESE 21:19:41 10° NE
Aureole 1 Rocket 4.4 21:08:47 10° NNW 21:14:51 72° WSW 21:22:31 10° S
SPOT 3 Rocket 4.4 21:10:44 10° S 21:15:42 48° W 21:20:45 10° NNW
Cosmos 2278 Rocket 3.5 21:10:43 10° NNW 21:15:44 31° NE 21:20:42 10° ESE
COSMOS 2428 3.2 21:10:40 10° S 21:15:57 40° ESE 21:21:15 10° NE
Cosmos 1844 Rocket 3.1 21:11:24 10° NNW 21:16:59 59° WSW 21:22:30 10° S
Cosmos 389 Rocket 4.3 21:19:49 10° NNE 21:22:17 18° ENE 21:24:17 12° ESE
Cosmos 1867 4.1 21:18:43 10° NNW 21:24:07 53° NE 21:28:54 13° ESE
ATLAS 2A CENTAUR R/B 4.5 21:20:21 10° SW 21:24:29 12° SSW 21:27:18 10° S
Cosmos 968 Rocket 3.8 21:24:28 10° NNW 21:29:31 56° ENE 21:33:29 16° SE
Cosmos 1908 4.3 21:28:09 10° NNW 21:31:49 41° W 21:35:26 10° SSW
JB-3 4.5 21:28:00 10° N 21:32:00 78° WNW 21:36:02 10° SSW
Cosmos 1626 2.5 21:30:23 10° SSW 21:34:01 63° W 21:37:43 10° N
Cosmos 1544 Rocket 4.0 21:30:50 10° NNW 21:35:15 62° W 21:39:23 11° S
Cosmos 2123 Rocket 4.0 21:30:28 10° S 21:36:45 80° E 21:43:07 10° N
Cosmos 2061 Rocket 4.1 21:30:37 10° N 21:37:06 90° E 21:42:50 13° S
Meteor 2-10 Rocket 4.0 21:34:20 10° N 21:39:11 44° ENE 21:42:36 18° SE
Uosat 12 SS-18 rocket 4.3 21:36:10 10° SSW 21:40:22 51° ESE 21:45:12 10° NE
Cosmos 2233 Rocket 4.2 21:34:45 10° N 21:40:51 60° ENE 21:45:35 17° SSE
ARIANE 5 R/B 3.1 21:38:34 13° S 21:42:29 59° W 21:46:57 10° NNW
Cosmos 1346 Rocket 3.5 21:47:04 21° SSE 21:49:07 37° E 21:52:50 10° NNE
Cosmos 405 3.4 21:47:52 10° NNW 21:51:16 55° W 21:53:33 19° S
ATLAS CENTAUR R/B 2.3 21:47:23 10° NW 21:51:32 43° WSW 21:54:30 19° S
BREEZE-M DEB (TANK) 4.1 21:41:54 10° SW 21:54:43 40° SSE 21:58:40 10° E
ATLAS 3B R/B 2.7 21:49:35 10° SW 21:56:09 84° NW 22:02:59 10° NE
SL-4 R/B 2.4 21:54:32 10° SSW 21:58:25 37° SE 22:02:01 10° ENE
FALCON 9 DEB 3.1 21:57:15 10° WSW 22:00:22 71° NNW 22:03:31 10° ENE
CZ-4B DEB 4.3 22:03:26 28° S 22:04:56 71° WSW 22:08:06 10° NNW
Cosmos 2219 Rocket 2.4 22:00:16 10° SSW 22:05:57 75° WNW 22:11:39 10° NNE
Meteor 2-5 Rocket 3.8 22:01:10 11° SSW 22:06:33 80° WNW 22:12:12 10° N
Cosmos 2333 Rocket 2.7 22:01:55 10° SW 22:07:38 64° WNW 22:13:20 10° NNE
Lacrosse 5 rocket 2.8 22:04:26 10° W 22:07:47 34° NNW 22:11:07 10° NE
ERS-1 Rocket 3.7 22:04:07 15° S 22:08:06 48° W 22:13:00 10° NNW
Cosmos 1607 4.3 22:01:42 10° NNW 22:08:06 64° NE 22:12:53 18° SE
Cosmos 1536 Rocket 4.2 22:05:19 10° SSW 22:09:39 55° WNW 22:14:02 10° N
Cosmos 2228 3.0 22:07:17 10° N 22:11:43 76° E 22:14:06 27° SSE
Iridium 2 4.4 22:12:19 28° SE 22:13:38 37° E 22:17:07 10° NNE
FALCON 9 DEB 4.0 22:13:00 10° W 22:15:59 45° NNW 22:19:00 10° NE
USA 215 3.7 22:14:49 10° ENE 22:20:50 38° SE 22:25:28 16° S
Terra 2.5 22:20:12 19° SSW 22:23:22 47° W 22:27:59 10° NNW
FALCON 9 DEB 3.9 22:20:59 10° W 22:24:01 48° NNW 22:27:04 10° NE
SL-16 R/B 3.7 22:23:55 17° ESE 22:25:24 19° E 22:29:17 10° NE
FALCON 9 DEB 4.2 22:23:36 10° W 22:26:35 42° NNW 22:29:35 10° NE
Cosmos 2237 Rocket 2.4 22:23:45 23° S 22:27:05 53° ESE 22:32:33 10° NE
Cosmos 1455 2.4 22:24:51 10° N 22:28:37 55° ENE 22:29:59 34° SE
Cosmos 1184 Rocket 3.5 22:29:49 34° ESE 22:30:12 35° E 22:33:13 10° NNE
Cosmos 1464 Rocket 4.4 22:24:23 10° N 22:30:39 55° ENE 22:34:26 24° SE
Cosmos 2360 Rocket 4.5 22:26:25 10° W 22:31:00 25° NW 22:35:35 10° N
SPOT 5 4.3 22:27:29 13° SSW 22:31:21 30° W 22:35:38 10° NW
H-2A R/B 4.0 22:29:20 10° N 22:33:20 55° WNW 22:36:19 17° SW
Cosmos 2369 Rocket 4.5 22:31:10 10° N 22:35:01 18° NE 22:38:49 10° E
Cosmos 1503 Rocket 4.0 22:29:41 10° NNW 22:35:06 88° ENE 22:37:58 29° SSE
Meteor 1-24 Rocket 4.2 22:33:33 12° SSW 22:38:22 54° WNW 22:43:49 10° N
GEOS 3 Rocket 4.0 22:38:08 19° ESE 22:41:56 64° NE 22:47:13 10° NW
ATLAS CENTAUR R/B 3.4 22:40:44 28° S 22:43:09 44° ESE 22:53:34 10° NE
USA 267 3.8 22:48:55 10° ESE 22:55:18 59° NNE 23:01:44 10° NW
Okean 1-7 Rocket 3.8 22:54:15 36° SSE 22:55:48 57° E 23:00:10 10° NNE
Cosmos 389 Rocket 3.9 22:53:57 10° NNW 22:56:58 29° W 22:58:04 24° SW
BREEZE-M DEB (TANK) 2.8 22:55:35 10° W 22:58:39 71° N 23:06:54 10° ENE
Cosmos 2278 Rocket 2.6 22:54:34 10° NW 23:00:04 52° WSW 23:02:45 29° S
COSMOS 2428 4.0 22:54:53 10° WSW 23:00:14 39° NW 23:05:37 10° NNE
Cosmos 1726 Rocket 4.1 22:57:45 10° NNW 23:02:05 51° W 23:03:59 30° SSW
Cosmos 2297 4.4 22:57:06 10° NNW 23:02:35 48° ENE 23:06:11 21° ESE
Cosmos 2058 Rocket 3.0 22:58:18 10° N 23:02:46 81° W 23:04:24 38° S
Cosmos 2034 Rocket 4.0 23:00:38 10° N 23:06:50 71° E 23:10:01 30° SSE
Centaur D AC-29 4.4 23:03:45 10° WSW 23:06:52 11° SW 23:09:08 10° SW
NOSS 0 Rocket 4.3 23:01:56 10° SW 23:08:06 66° WNW 23:14:20 10° NNE
SJ 16-02 2.2 23:11:22 10° N 23:15:32 42° ENE 23:17:27 26° ESE
Meteor 1-21 Rocket 4.2 23:14:30 30° SSW 23:17:27 86° W 23:23:15 10° N
Cosmos 1777 Rocket 4.0 23:15:19 10° NNW 23:20:39 89° WSW 23:22:57 35° SSE
Spot 4 4.1 23:20:17 35° SSW 23:22:08 59° W 23:26:53 10° NNW
Cosmos 1892 Rocket 4.5 23:21:07 24° SW 23:23:26 43° WNW 23:27:43 10° N
GP-B 4.0 23:20:30 10° NNE 23:24:39 37° E 23:26:01 30° SE
Cosmos 1943 Rocket 2.6 23:20:13 10° NNW 23:25:39 56° ENE 23:28:53 24° SE
Meteor 1-4 Rocket 2.3 23:22:40 10° N 23:26:09 79° ENE 23:26:36 63° SSE
Cosmos 1441 Rocket 3.6 23:29:44 38° SW 23:30:55 58° WNW 23:34:41 10° N
MTI 4.1 23:29:39 10° NNE 23:32:27 47° E 23:32:27 47° E
ALOS 2 2.6 23:35:17 43° S 23:36:37 70° WSW 23:41:01 10° NNW
Tsikada Rocket 4.0 23:34:13 33° S 23:37:12 75° E 23:43:21 10° NNE
SL-4 R/B 2.3 23:33:55 10° W 23:37:54 62° NNW 23:41:36 10° ENE
USA 229 DEB 4.1 23:38:45 31° SSE 23:40:58 40° ESE 23:47:11 10° NE
USA 229 4.2 23:38:53 31° SSE 23:41:05 40° ESE 23:47:16 10° NE
Cosmos 1703 4.2 23:44:02 29° WSW 23:45:25 40° WNW 23:49:12 10° N
Lacrosse 5 rocket 4.1 23:45:13 10° NW 23:47:43 17° N 23:50:12 10° NE
NOSS 3-1 (C) 3.2 23:46:44 35° SSW 23:48:58 65° ESE 23:55:08 10° NE
Cosmos 1626 Rocket 3.8 23:49:24 38° SW 23:50:58 64° W 23:55:23 10° N
Cosmos 724 4.4 23:45:37 10° NW 23:51:43 64° WSW 23:54:20 34° S
Cosmos 1408 4.0 23:53:09 25° ESE 23:53:41 26° E 23:56:49 10° NNE
Elektron 1 3.7 23:50:54 10° NW 23:53:44 69° WSW 23:53:44 69° WSW
OPS 6432 4.2 23:51:40 10° NW 23:54:42 90° ENE 23:54:59 73° SE
Cosmos 1825 4.2 23:54:28 16° ESE 23:55:17 17° E 23:57:47 10° NE
